Location: Cornospital
(48.0620°N, 3.3837°W)
Time: 20:31:19
(UTC+00:00)

GENESIS II - Pass Details

Date: 17 June 2021
Orbit: 509 x 516 km, 64.5° (Epoch: 02 August)

Event Time Altitude Azimuth Distance (km) Brightness Sun altitude
Exits shadow 23:47:04 37° 220° (SW) 808 4.8 -18.3°
Maximum altitude 23:48:31 87° 309° (NW) 516 4.1 -18.3°
Drops below altitude 10° 23:52:25 10° 38° (NE) 1,736 7.5 -18.4°
Sets 23:54:35 0° 39° (NE) 2,627 8.5 -18.4°
